Weather History for Chadron, NE

Change the Weather History Date:

Tuesday, February 12, 2013

  Actual Average Record
Temperature  
Mean Temperature 24 °F 26 °F  
Max Temperature 42 °F 41 °F 74 °F (1962)
Min Temperature 5 °F 12 °F -24 °F (1986)
Degree Days  
Heating Degree Days 41 38  
Month to date heating degree days 397 472  
Since 1 July heating degree days 4335 4671  
Cooling Degree Days 0 0  
Month to date cooling degree days 0 0  
Year to date cooling degree days 0 0  
Moisture  
Dew Point 15 °F    
Average Humidity 66    
Maximum Humidity 86    
Minimum Humidity 45    
Precipitation  
Precipitation 0.00 in 0.02 in 0.98 in (1915)
Month to date precipitation 0.02 0.22  
Year to date precipitation 0.50 0.58  
Sea Level Pressure  
Sea Level Pressure 30.12 in    
Wind  
Wind Speed 13 mph (West)    
Max Wind Speed 24 mph    
Max Gust Speed 31 mph    
Visibility 10 miles    
Events      
T = Trace of Precipitation, MM = Missing Value Source: NWS Daily Summary

Daily Weather History Graph

Daily Weather History Graph

Search for Another Location

Airport:

Trip Planner

Search our weather history database for the weather conditions in past years. The results will help you decide how hot, cold, wet, or windy it might be!

Date:

Astronomy

Feb. 12, 2013 Rise Set
Actual Time 6:53 AM MST 5:20 PM MST
Civil Twilight 6:24 AM MST 5:49 PM MST
Nautical Twilight 5:50 AM MST 6:22 PM MST
Astronomical Twilight 5:18 AM MST 6:55 PM MST
Moon 7:46 AM MST (2/12) 8:29 PM MST (2/12)
Length of Visible Light 11h 25m
Length of Day
10h 27m
Waxing Crescent, 8% of the Moon is Illuminated
Feb 12
Waxing Crescent
Feb 17
First Quarter
Feb 25
Full
Mar 4
Last Quarter
Mar 11
New

Hourly Weather History & Observations

Time (MST) Temp. Windchill Dew Point Humidity Pressure Visibility Wind Dir Wind Speed Gust Speed Precip Events Conditions
12:53 AM 6.1 °F -6.8 °F 1.0 °F 80% 30.17 in 10.0 mi WSW 8.1 mph - N/A   Clear
1:53 AM 12.9 °F 1.6 °F 5.0 °F 71% 30.15 in 10.0 mi West 8.1 mph - N/A   Clear
2:53 AM 7.0 °F -7.5 °F 1.0 °F 77% 30.15 in 10.0 mi SW 10.4 mph - N/A   Clear
3:53 AM 14.0 °F 1.2 °F 5.0 °F 67% 30.12 in 10.0 mi WSW 10.4 mph - N/A   Clear
5:53 AM 18.0 °F 5.4 °F 7.0 °F 62% 30.15 in 10.0 mi WSW 11.5 mph - N/A   Clear
6:53 AM 17.1 °F 5.8 °F 8.1 °F 68% 30.18 in 10.0 mi WSW 9.2 mph - N/A   Clear
7:53 AM 17.1 °F 5.8 °F 9.0 °F 71% 30.19 in 10.0 mi SW 9.2 mph - N/A   Clear
8:53 AM 24.1 °F 14.4 °F 12.0 °F 60% 30.20 in 10.0 mi WSW 9.2 mph - N/A   Clear
9:53 AM 28.9 °F 19.8 °F 16.0 °F 58% 30.19 in 10.0 mi WSW 10.4 mph - N/A   Clear
10:53 AM 33.1 °F 25.5 °F 19.0 °F 56% 30.17 in 10.0 mi WSW 9.2 mph - N/A   Clear
11:53 AM 37.0 °F 27.0 °F 19.0 °F 48% 30.14 in 10.0 mi WNW 18.4 mph 26.5 mph N/A   Clear
12:53 PM 39.0 °F 29.6 °F 21.0 °F 49% 30.11 in 10.0 mi WNW 18.4 mph - N/A   Clear
1:53 PM 41.0 °F 32.5 °F 21.9 °F 47% 30.08 in 10.0 mi WNW 17.3 mph - N/A   Clear
2:53 PM 41.0 °F 31.9 °F 21.9 °F 47% 30.09 in 10.0 mi WNW 19.6 mph - N/A   Clear
3:53 PM 41.0 °F 31.9 °F 23.0 °F 49% 30.06 in 10.0 mi WNW 19.6 mph - N/A   Clear
4:53 PM 37.9 °F 28.9 °F 21.0 °F 51% 30.08 in 10.0 mi West 16.1 mph - N/A   Clear
5:53 PM 34.0 °F 24.6 °F 21.9 °F 61% 30.10 in 10.0 mi West 13.8 mph - N/A   Clear
6:53 PM 32.0 °F 21.2 °F 19.9 °F 61% 30.12 in 10.0 mi West 16.1 mph 25.3 mph N/A   Clear
7:53 PM 30.0 °F 19.1 °F 18.0 °F 61% 30.12 in 10.0 mi West 15.0 mph - N/A   Clear
8:53 PM 30.9 °F 20.2 °F 18.0 °F 59% 30.11 in 10.0 mi WNW 15.0 mph - N/A   Overcast
9:53 PM 30.0 °F 20.5 °F 18.0 °F 61% 30.09 in 10.0 mi West 11.5 mph - N/A   Overcast
10:53 PM 30.0 °F 21.1 °F 18.0 °F 61% 30.06 in 10.0 mi WNW 10.4 mph - N/A   Overcast
11:53 PM 30.0 °F 20.5 °F 18.0 °F 61% 30.03 in 10.0 mi West 11.5 mph - N/A   Overcast